^^
Your Local Weather - Clay, NY Station Historical Data
Daily Summary for March 1, 2017 Units:  Metric    English   Both
« Previous Day
Next Day »
Daily Weekly Monthly Yearly Custom
  High: Low: Average:
Temperature: 20.1 °C 7.6 °C 14.1 °C
Dew Point: 11.8 °C 0.6 °C 8.6 °C
Humidity: 88% 56% 70%
Wind Speed: 19.3km/h 0km/h 7.6km/h
Wind Gust: 35.4km/h - -
Wind- - SSW
Pressure: 1008.4 hPa 989.4 hPa -
Precipitation: 1.78 mm    
Historical Graphs
 
 
Tabular Data for March 1, 2017
Time Temperature Dew Point Pressure Wind Wind Speed Wind Gust Humidity Rainfall Rate (Hourly) solar
00:00 14 °C 5.6 °C 1008.4 hPa South 6.4 km/h 8 km/h 57% 0 mm 0 W/m2
00:06 13.9 °C 5.6 °C 1008 hPa SW 8 km/h 8 km/h 57% 0 mm 0 W/m2
00:12 13.9 °C 5.6 °C 1008 hPa SW 6.4 km/h 9.7 km/h 57% 0 mm 0 W/m2
00:18 13.9 °C 5.8 °C 1007.7 hPa South 4.8 km/h 9.7 km/h 58% 0 mm 0 W/m2
00:24 13.9 °C 5.6 °C 1007.7 hPa SSW 6.4 km/h 9.7 km/h 57% 0 mm 0 W/m2
00:30 13.9 °C 5.8 °C 1007.7 hPa South 6.4 km/h 9.7 km/h 58% 0 mm 0 W/m2
00:32 13.9 °C 5.8 °C 1007.7 hPa SSW 6.4 km/h 9.7 km/h 58% 0 mm 0 W/m2
00:38 13.9 °C 5.8 °C 1007.7 hPa South 4.8 km/h 9.7 km/h 58% 0 mm 0 W/m2
00:44 13.9 °C 5.8 °C 1007.3 hPa SSW 4.8 km/h 4.8 km/h 58% 0 mm 0 W/m2
00:50 13.9 °C 5.8 °C 1007.3 hPa SW 6.4 km/h 9.7 km/h 58% 0 mm 0 W/m2
00:56 13.9 °C 5.8 °C 1007 hPa SSW 6.4 km/h 9.7 km/h 58% 0 mm 0 W/m2
01:02 13.8 °C 5.9 °C 1007 hPa SSW 4.8 km/h 4.8 km/h 59% 0 mm 0 W/m2
01:08 13.8 °C 6.2 °C 1006.7 hPa SSE 4.8 km/h 6.4 km/h 60% 0 mm 0 W/m2
01:14 13.8 °C 6.2 °C 1006.7 hPa SSW 6.4 km/h 8 km/h 60% 0 mm 0 W/m2
01:20 13.9 °C 6.2 °C 1006.7 hPa SSE 8 km/h 11.3 km/h 60% 0 mm 0 W/m2
01:26 13.8 °C 6.4 °C 1006.3 hPa SSW 8 km/h 11.3 km/h 61% 0 mm 0 W/m2
01:32 13.8 °C 6.4 °C 1006.3 hPa SW 6.4 km/h 8 km/h 61% 0 mm 0 W/m2
01:38 13.7 °C 6.6 °C 1006 hPa SSW 8 km/h 14.5 km/h 62% 0 mm 0 W/m2
01:44 13.7 °C 6.6 °C 1006 hPa SW 8 km/h 12.9 km/h 62% 0 mm 0 W/m2
01:50 13.7 °C 6.5 °C 1005.6 hPa South 8 km/h 8 km/h 62% 0 mm 0 W/m2
01:56 13.6 °C 6.7 °C 1005.6 hPa SSW 6.4 km/h 11.3 km/h 63% 0 mm 0 W/m2
02:02 13.6 °C 6.7 °C 1005.3 hPa SSE 8 km/h 8 km/h 63% 0 mm 0 W/m2
02:08 13.6 °C 6.7 °C 1005.3 hPa South 6.4 km/h 11.3 km/h 63% 0 mm 0 W/m2
02:14 13.3 °C 6.7 °C 1005 hPa South 4.8 km/h 6.4 km/h 64% 0 mm 0 W/m2
02:20 13.2 °C 6.8 °C 1005 hPa South 3.2 km/h 3.2 km/h 65% 0 mm 0 W/m2
02:26 13.3 °C 7.1 °C 1005 hPa SSE 4.8 km/h 8 km/h 66% 0 mm 0 W/m2
02:32 13.4 °C 6.9 °C 1005 hPa South 6.4 km/h 6.4 km/h 65% 0 mm 0 W/m2
02:38 13.4 °C 6.9 °C 1004.6 hPa SE 6.4 km/h 6.4 km/h 65% 0 mm 0 W/m2
02:44 13.4 °C 7.2 °C 1004.6 hPa South 6.4 km/h 9.7 km/h 66% 0 mm 0 W/m2
02:50 13.5 °C 7.3 °C 1004.6 hPa SSE 8 km/h 8 km/h 66% 0 mm 0 W/m2
02:56 13.5 °C 7.3 °C 1004.6 hPa SSE 8 km/h 9.7 km/h 66% 0 mm 0 W/m2
03:02 13.5 °C 7.5 °C 1004.3 hPa SE 6.4 km/h 11.3 km/h 67% 0 mm 0 W/m2
03:08 13.4 °C 7.4 °C 1003.9 hPa SSW 6.4 km/h 11.3 km/h 67% 0 mm 0 W/m2
03:14 13.4 °C 7.6 °C 1003.9 hPa South 4.8 km/h 4.8 km/h 68% 0 mm 0 W/m2
03:20 13.3 °C 7.5 °C 1003.6 hPa SSE 4.8 km/h 4.8 km/h 68% 0 mm 0 W/m2
03:26 13.3 °C 7.5 °C 1003.3 hPa SSE 3.2 km/h 4.8 km/h 68% 0 mm 0 W/m2
03:32 13.3 °C 7.8 °C 1003.3 hPa SSE 4.8 km/h 4.8 km/h 69% 0 mm 0 W/m2
03:38 13.3 °C 7.8 °C 1002.9 hPa SSW 6.4 km/h 8 km/h 69% 0 mm 0 W/m2
03:44 13.4 °C 7.9 °C 1002.9 hPa SSE 8 km/h 9.7 km/h 69% 0 mm 0 W/m2
03:50 13.4 °C 7.8 °C 1002.6 hPa SSE 6.4 km/h 12.9 km/h 69% 0 mm 0 W/m2
03:56 13.5 °C 7.9 °C 1002.3 hPa South 6.4 km/h 12.9 km/h 69% 0 mm 0 W/m2
04:02 13.6 °C 8 °C 1001.9 hPa South 4.8 km/h 8 km/h 69% 0 mm 0 W/m2
04:08 13.6 °C 8.2 °C 1001.9 hPa South 4.8 km/h 8 km/h 70% 0 mm 0 W/m2
04:14 13.5 °C 8.3 °C 1001.9 hPa South 6.4 km/h 12.9 km/h 71% 0 mm 0 W/m2
04:20 13.6 °C 8.4 °C 1001.9 hPa South 6.4 km/h 11.3 km/h 71% 0 mm 0 W/m2
04:26 13.6 °C 8.4 °C 1001.9 hPa SSW 4.8 km/h 11.3 km/h 71% 0 mm 0 W/m2
04:32 13.7 °C 8.5 °C 1001.9 hPa SSW 6.4 km/h 6.4 km/h 71% 0 mm 0 W/m2
04:38 13.8 °C 8.6 °C 1001.9 hPa South 8 km/h 11.3 km/h 71% 0 mm 0 W/m2
04:50 13.8 °C 8.8 °C 1001.2 hPa South 8 km/h 8 km/h 72% 0 mm 0 W/m2
04:56 13.7 °C 8.8 °C 1001.2 hPa SSE 6.4 km/h 17.7 km/h 72% 0 mm 0 W/m2
05:02 13.7 °C 8.7 °C 1000.9 hPa SSE 6.4 km/h 11.3 km/h 72% 0 mm 0 W/m2
05:08 13.7 °C 8.8 °C 1000.6 hPa SSE 8 km/h 11.3 km/h 72% 0 mm 0 W/m2
05:14 13.8 °C 8.9 °C 1001.2 hPa SE 9.7 km/h 19.3 km/h 72% 0 mm 0 W/m2
05:20 13.9 °C 8.9 °C 1001.2 hPa South 9.7 km/h 9.7 km/h 72% 0 mm 0 W/m2
05:26 13.8 °C 8.9 °C 1000.9 hPa South 9.7 km/h 9.7 km/h 72% 0 mm 0 W/m2
05:32 13.5 °C 8.9 °C 1000.2 hPa South 8 km/h 9.7 km/h 74% 0 mm 0 W/m2
05:38 13.3 °C 9.2 °C 1000.2 hPa SSE 6.4 km/h 9.7 km/h 76% 0 mm 0 W/m2
05:44 13.3 °C 9.1 °C 999.5 hPa SE 6.4 km/h 12.9 km/h 76% 0 mm 0 W/m2
05:50 13.3 °C 9.2 °C 999.9 hPa South 6.4 km/h 6.4 km/h 76% 0 mm 0 W/m2
05:56 13.4 °C 9.2 °C 999.5 hPa SSE 4.8 km/h 6.4 km/h 76% 0 mm 0 W/m2
06:02 13.4 °C 9.3 °C 999.5 hPa SSE 4.8 km/h 6.4 km/h 76% 0 mm 0 W/m2
06:08 13.4 °C 9.3 °C 999.5 hPa SSE 4.8 km/h 6.4 km/h 76% 0 mm 0 W/m2
06:14 13.5 °C 9.3 °C 999.2 hPa South 6.4 km/h 6.4 km/h 76% 0 mm 0 W/m2
06:20 13.7 °C 9.3 °C 999.2 hPa SSE 8 km/h 9.7 km/h 75% 0 mm 0 W/m2
06:26 13.8 °C 9.4 °C 998.9 hPa South 8 km/h 9.7 km/h 75% 0 mm 0 W/m2
06:32 13.9 °C 9.3 °C 998.5 hPa SSE 8 km/h 8 km/h 74% 0 mm 0 W/m2
06:38 13.8 °C 9.5 °C 997.9 hPa SE 8 km/h 22.5 km/h 75% 0 mm 0 W/m2
06:44 14 °C 9.4 °C 997.5 hPa SSE 11.3 km/h 12.9 km/h 74% 0 mm 0 W/m2
06:50 14.1 °C 9.5 °C 997.5 hPa SSE 11.3 km/h 11.3 km/h 74% 0 mm 0 W/m2
06:56 14.1 °C 9.6 °C 997.5 hPa SE 9.7 km/h 14.5 km/h 74% 0 mm 0 W/m2
07:03 14.2 °C 9.7 °C 997.5 hPa SSE 8 km/h 12.9 km/h 74% 0 mm 0 W/m2
07:08 14.4 °C 9.9 °C 997.5 hPa SSE 9.7 km/h 12.9 km/h 74% 0 mm 5 W/m2
07:14 14.6 °C 10 °C 997.9 hPa SSE 9.7 km/h 9.7 km/h 74% 0 mm 7 W/m2
07:20 14.6 °C 9.8 °C 997.9 hPa South 8 km/h 8 km/h 73% 0 mm 11 W/m2
07:26 14.5 °C 9.9 °C 997.5 hPa SSE 4.8 km/h 8 km/h 74% 0 mm 12 W/m2
07:32 14.6 °C 10 °C 997.9 hPa South 4.8 km/h 4.8 km/h 74% 0 mm 12 W/m2
07:38 14.7 °C 9.9 °C 997.9 hPa South 6.4 km/h 6.4 km/h 73% 0 mm 7 W/m2
07:44 15.1 °C 10.3 °C 997.9 hPa South 8 km/h 16.1 km/h 73% 0 mm 5 W/m2
07:50 15.4 °C 10.6 °C 997.5 hPa South 9.7 km/h 9.7 km/h 73% 0 mm 7 W/m2
07:56 15.6 °C 10.5 °C 997.5 hPa South 9.7 km/h 12.9 km/h 72% 0 mm 12 W/m2
08:02 15.6 °C 10.6 °C 997.5 hPa SW 8 km/h 8 km/h 72% 0 mm 11 W/m2
08:08 15.6 °C 10.5 °C 997.5 hPa South 8 km/h 11.3 km/h 72% 0 mm 11 W/m2
08:14 15.4 °C 10.4 °C 997.5 hPa SSE 6.4 km/h 8 km/h 72% 0 mm 11 W/m2
08:20 15.4 °C 10.4 °C 997.5 hPa South 4.8 km/h 12.9 km/h 72% 0 mm 11 W/m2
08:26 15.3 °C 10.5 °C 996.8 hPa South 4.8 km/h 12.9 km/h 73% 0 mm 14 W/m2
08:32 15.4 °C 10.6 °C 996.8 hPa South 4.8 km/h 8 km/h 73% 0 mm 14 W/m2
08:38 15.3 °C 10.5 °C 996.8 hPa SSW 4.8 km/h 8 km/h 73% 0 mm 25 W/m2
08:44 15.3 °C 10.7 °C 996.8 hPa South 4.8 km/h 6.4 km/h 74% 0 mm 21 W/m2
08:50 15.3 °C 10.7 °C 996.8 hPa SSE 6.4 km/h 9.7 km/h 74% 0 mm 30 W/m2
08:56 15.3 °C 10.7 °C 996.8 hPa South 6.4 km/h 9.7 km/h 74% 0 mm 30 W/m2
09:02 15.3 °C 10.9 °C 996.5 hPa SSE 6.4 km/h 8 km/h 75% 0 mm 47 W/m2
09:08 15.4 °C 11 °C 996.5 hPa South 8 km/h 19.3 km/h 75% 0 mm 28 W/m2
09:14 15.4 °C 11 °C 996.5 hPa SSE 9.7 km/h 11.3 km/h 75% 0 mm 33 W/m2
09:20 15.3 °C 10.9 °C 996.2 hPa SSE 8 km/h 8 km/h 75% 0 mm 19 W/m2
09:26 15.3 °C 11.1 °C 995.8 hPa SSE 6.4 km/h 11.3 km/h 76% 0 mm 33 W/m2
09:32 15.4 °C 11 °C 995.5 hPa SSE 6.4 km/h 9.7 km/h 75% 0 mm 49 W/m2
09:38 15.4 °C 11.1 °C 995.1 hPa SSE 8 km/h 9.7 km/h 75% 0 mm 58 W/m2
09:44 15.6 °C 10.9 °C 995.1 hPa South 9.7 km/h 14.5 km/h 74% 0 mm 69 W/m2
09:50 15.8 °C 10.7 °C 995.1 hPa South 11.3 km/h 11.3 km/h 72% 0 mm 67 W/m2
09:56 15.8 °C 10.8 °C 995.1 hPa South 11.3 km/h 12.9 km/h 72% 0 mm 81 W/m2
10:02 15.9 °C 10.6 °C 994.8 hPa SSE 9.7 km/h 11.3 km/h 71% 0 mm 134 W/m2
10:08 16 °C 10.7 °C 994.8 hPa SSE 11.3 km/h 14.5 km/h 71% 0 mm 97 W/m2
10:14 16 °C 10.7 °C 994.5 hPa SSE 11.3 km/h 19.3 km/h 71% 0 mm 86 W/m2
10:20 16.6 °C 10.9 °C 994.1 hPa South 11.3 km/h 11.3 km/h 69% 0 mm 564 W/m2
10:26 17.3 °C 11.2 °C 994.1 hPa SSE 9.7 km/h 20.9 km/h 67% 0 mm 473 W/m2
10:32 17.3 °C 10.9 °C 993.8 hPa SSW 9.7 km/h 9.7 km/h 66% 0 mm 216 W/m2
10:38 17.1 °C 10.9 °C 993.5 hPa SW 11.3 km/h 16.1 km/h 67% 0 mm 264 W/m2
11:16 17.9 °C 11 °C 992.1 hPa South 14.5 km/h 20.9 km/h 64% 0 mm 223 W/m2
11:22 18 °C 11.1 °C 992.1 hPa SSE 17.7 km/h 25.7 km/h 64% 0 mm 332 W/m2
11:28 18.4 °C 11.3 °C 991.8 hPa South 16.1 km/h 17.7 km/h 63% 0 mm 573 W/m2
11:34 18.5 °C 11.1 °C 991.8 hPa SW 17.7 km/h 35.4 km/h 62% 0 mm 543 W/m2
11:39 18.8 °C 11.1 °C 992.1 hPa SW 19.3 km/h 25.7 km/h 61% 0 mm 497 W/m2
11:45 19.1 °C 11.4 °C 992.1 hPa South 14.5 km/h 14.5 km/h 61% 0 mm 568 W/m2
11:52 19.1 °C 11.1 °C 992.1 hPa South 12.9 km/h 22.5 km/h 60% 0 mm 441 W/m2
11:58 18.9 °C 11.3 °C 992.1 hPa South 17.7 km/h 17.7 km/h 61% 0 mm 571 W/m2
12:04 19 °C 11.3 °C 992.1 hPa SW 14.5 km/h 17.7 km/h 61% 0 mm 255 W/m2
12:10 19 °C 11.1 °C 991.4 hPa SW 11.3 km/h 11.3 km/h 60% 0 mm 287 W/m2
12:15 19.1 °C 11.4 °C 991.4 hPa South 11.3 km/h 16.1 km/h 61% 0 mm 301 W/m2
12:22 19.2 °C 11.2 °C 991.4 hPa SSW 12.9 km/h 12.9 km/h 60% 0 mm 315 W/m2
12:28 19.4 °C 11.4 °C 991.4 hPa SSW 11.3 km/h 16.1 km/h 60% 0 mm 353 W/m2
12:33 19.6 °C 11.3 °C 991.4 hPa South 11.3 km/h 24.1 km/h 59% 0 mm 327 W/m2
12:40 19.7 °C 11.2 °C 991.4 hPa SW 12.9 km/h 12.9 km/h 58% 0 mm 265 W/m2
12:45 19.8 °C 11.1 °C 991.4 hPa SSW 11.3 km/h 12.9 km/h 57% 0 mm 330 W/m2
12:52 20 °C 11.2 °C 991.1 hPa SSW 12.9 km/h 25.7 km/h 57% 0 mm 345 W/m2
12:58 20.1 °C 11.1 °C 991.1 hPa SSW 12.9 km/h 25.7 km/h 56% 0 mm 297 W/m2
13:04 20.1 °C 11.3 °C 991.1 hPa South 11.3 km/h 12.9 km/h 57% 0 mm 281 W/m2
13:10 19.9 °C 10.9 °C 991.1 hPa SSE 11.3 km/h 11.3 km/h 56% 0 mm 98 W/m2
13:15 19.7 °C 10.9 °C 991.1 hPa WSW 14.5 km/h 22.5 km/h 57% 0 mm 100 W/m2
13:22 19.5 °C 11 °C 991.1 hPa SW 12.9 km/h 22.5 km/h 58% 0 mm 111 W/m2
13:28 19.3 °C 11.1 °C 991.1 hPa South 14.5 km/h 22.5 km/h 59% 0 mm 95 W/m2
13:34 19.1 °C 11.3 °C 991.1 hPa South 12.9 km/h 14.5 km/h 61% 0 mm 86 W/m2
13:40 18.8 °C 11.3 °C 991.1 hPa WSW 11.3 km/h 12.9 km/h 62% 0 mm 93 W/m2
13:45 18.6 °C 11.2 °C 991.1 hPa SW 11.3 km/h 29 km/h 62% 0 mm 104 W/m2
13:52 18.3 °C 11.6 °C 991.1 hPa SW 11.3 km/h 12.9 km/h 65% 0 mm 114 W/m2
13:58 18.1 °C 11.7 °C 990.7 hPa SSW 9.7 km/h 12.9 km/h 66% 0 mm 127 W/m2
14:03 17.9 °C 11.7 °C 990.7 hPa SW 6.4 km/h 11.3 km/h 67% 0 mm 132 W/m2
14:09 17.4 °C 11.7 °C 990.4 hPa North 6.4 km/h 6.4 km/h 69% 0 mm 107 W/m2
14:16 16.3 °C 11.5 °C 990.4 hPa North 3.2 km/h 6.4 km/h 73% 0 mm 111 W/m2
14:22 15.9 °C 11.4 °C 990.4 hPa North 1.6 km/h 3.2 km/h 75% 0 mm 113 W/m2
14:28 15.7 °C 11.7 °C 990.4 hPa North 1.6 km/h 3.2 km/h 77% 0 mm 77 W/m2
14:33 15.6 °C 11.8 °C 990.4 hPa North 1.6 km/h 1.6 km/h 78% 0 mm 56 W/m2
14:39 15.6 °C 11.7 °C 990.4 hPa North 1.6 km/h 1.6 km/h 78% 0 mm 39 W/m2
14:46 15.3 °C 11.5 °C 990.4 hPa North 1.6 km/h 3.2 km/h 78% 0 mm 35 W/m2
14:52 15.2 °C 11.2 °C 990.4 hPa NW 3.2 km/h 3.2 km/h 77% 0 mm 40 W/m2
14:58 15.2 °C 11 °C 990.4 hPa NW 1.6 km/h 4.8 km/h 76% 0 mm 46 W/m2
15:03 15.3 °C 10.9 °C 990.7 hPa NW 1.6 km/h 3.2 km/h 75% 0 mm 39 W/m2
15:10 15.3 °C 10.9 °C 990.7 hPa Calm     75% 0 mm 77 W/m2
15:15 15.4 °C 10.8 °C 991.1 hPa West 1.6 km/h 3.2 km/h 74% 0 mm 65 W/m2
15:22 16.2 °C 9.6 °C 990.7 hPa WSW 4.8 km/h 6.4 km/h 65% 0 mm 74 W/m2
15:28 16.3 °C 10.6 °C 991.1 hPa NNW 4.8 km/h 8 km/h 69% 0 mm 60 W/m2
15:34 16.1 °C 10.2 °C 990.7 hPa NNW 4.8 km/h 11.3 km/h 68% 0 mm 58 W/m2
15:40 15.3 °C 10.5 °C 991.1 hPa North 8 km/h 8 km/h 73% 0 mm 30 W/m2
15:45 14.3 °C 9.9 °C 990.7 hPa NNW 8 km/h 12.9 km/h 75% 0 mm 28 W/m2
15:52 13.8 °C 10.1 °C 990.7 hPa North 9.7 km/h 12.9 km/h 78% 0 mm 72 W/m2
15:58 13.7 °C 9.9 °C 991.1 hPa NNW 8 km/h 12.9 km/h 78% 0 mm 70 W/m2
16:04 13.8 °C 10.2 °C 991.1 hPa NNW 6.4 km/h 9.7 km/h 79% 0 mm 179 W/m2
16:09 13.8 °C 10.1 °C 991.1 hPa NNE 6.4 km/h 6.4 km/h 78% 0 mm 105 W/m2
16:15 13.7 °C 9.9 °C 990.7 hPa NNE 6.4 km/h 8 km/h 78% 0 mm 111 W/m2
16:22 14.1 °C 9.9 °C 990.4 hPa North 4.8 km/h 6.4 km/h 76% 0 mm 227 W/m2
16:28 14.1 °C 9.9 °C 990.4 hPa NE 3.2 km/h 6.4 km/h 76% 0 mm 90 W/m2
16:34 13.8 °C 9.8 °C 990.4 hPa NE 1.6 km/h 3.2 km/h 77% 0 mm 63 W/m2
16:40 13.7 °C 9.7 °C 990.4 hPa NE 1.6 km/h 4.8 km/h 77% 0 mm 47 W/m2
16:45 13.7 °C 9.9 °C 990.4 hPa Calm   4.8 km/h 78% 0 mm 39 W/m2
16:52 13.6 °C 9.8 °C 990.4 hPa NW 1.6 km/h 1.6 km/h 78% 0 mm 32 W/m2
16:58 13.6 °C 9.8 °C 990.4 hPa NW 1.6 km/h 3.2 km/h 78% 0 mm 26 W/m2
17:03 13.5 °C 9.7 °C 990.4 hPa Calm     78% 0 mm 11 W/m2
17:09 13.4 °C 9.7 °C 990.7 hPa Calm     78% 0 mm 7 W/m2
17:16 13.4 °C 9.6 °C 990.7 hPa Calm     78% 0 mm 9 W/m2
17:22 13.2 °C 9.4 °C 990.7 hPa Calm     78% 0 mm 16 W/m2
17:28 13.2 °C 9.4 °C 990.7 hPa Calm     78% 0 mm 12 W/m2
17:33 13.1 °C 9.3 °C 990.7 hPa Calm     78% 0 mm 11 W/m2
17:39 13.1 °C 9.5 °C 990.7 hPa Calm     79% 0 mm 5 W/m2
17:46 12.8 °C 9.3 °C 990.7 hPa Calm   1.6 km/h 79% 0 mm 0 W/m2
17:52 12.7 °C 9.3 °C 990.7 hPa Calm   3.2 km/h 80% 0 mm 0 W/m2
17:58 12.5 °C 9.5 °C 990.4 hPa NW 1.6 km/h 3.2 km/h 82% 0 mm 0 W/m2
18:04 12.3 °C 9.5 °C 990.4 hPa NW 1.6 km/h 1.6 km/h 83% 0 mm 0 W/m2
18:10 12.1 °C 9.4 °C 990.4 hPa Calm   1.6 km/h 84% 0 mm 0 W/m2
18:15 11.9 °C 9.5 °C 990.4 hPa Calm   1.6 km/h 85% 0 mm 0 W/m2
18:22 11.9 °C 9.7 °C 990.4 hPa Calm     86% 0 mm 0 W/m2
18:28 11.8 °C 9.5 °C 990.4 hPa Calm     86% 0 mm 0 W/m2
18:33 11.7 °C 9.4 °C 990.1 hPa Calm     86% 0 mm 0 W/m2
18:39 11.6 °C 9.3 °C 990.1 hPa Calm     86% 0 mm 0 W/m2
18:46 11.4 °C 9.3 °C 990.1 hPa Calm   1.6 km/h 87% 0 mm 0 W/m2
18:52 11.3 °C 9.2 °C 990.1 hPa Calm     87% 0 mm 0 W/m2
18:58 11.2 °C 9.1 °C 990.1 hPa Calm     87% 0 mm 0 W/m2
19:04 11.1 °C 9.2 °C 989.7 hPa Calm   3.2 km/h 88% 0 mm 0 W/m2
19:10 11.1 °C 9.2 °C 989.7 hPa Calm     88% 0 mm 0 W/m2
19:15 11.2 °C 9.3 °C 989.4 hPa Calm     88% 0 mm 0 W/m2
19:22 11.4 °C 9.4 °C 989.4 hPa Calm     88% 0 mm 0 W/m2
19:28 14.3 °C 8.2 °C 989.4 hPa South 4.8 km/h 19.3 km/h 67% 0 mm 0 W/m2
19:33 15.7 °C 8.2 °C 989.4 hPa SW 9.7 km/h 11.3 km/h 61% 0 mm 0 W/m2
19:40 16.1 °C 7.8 °C 989.4 hPa SSW 8 km/h 8 km/h 58% 0 mm 0 W/m2
19:46 16.2 °C 8.2 °C 989.7 hPa WSW 9.7 km/h 16.1 km/h 59% 0 mm 0 W/m2
19:52 13.7 °C 8.6 °C 990.4 hPa West 12.9 km/h 14.5 km/h 71% 6.35 mm 0 W/m2
19:58 12.6 °C 8.4 °C 990.4 hPa West 11.3 km/h 14.5 km/h 76% 2.29 mm 0 W/m2
20:03 12.2 °C 8.4 °C 990.4 hPa WSW 9.7 km/h 11.3 km/h 78% 2.29 mm 0 W/m2
20:09 12.1 °C 8.6 °C 990.4 hPa SW 9.7 km/h 9.7 km/h 79% 1.27 mm 0 W/m2
20:15 12.1 °C 8.5 °C 990.4 hPa SSW 11.3 km/h 19.3 km/h 79% 0 mm 0 W/m2
20:22 12 °C 8.7 °C 990.4 hPa West 11.3 km/h 16.1 km/h 80% 3.3 mm 0 W/m2
20:28 11.9 °C 8.6 °C 990.4 hPa SW 11.3 km/h 20.9 km/h 80% 1.78 mm 0 W/m2
20:33 12.1 °C 8.5 °C 990.4 hPa West 11.3 km/h 16.1 km/h 79% 1.02 mm 0 W/m2
20:39 12.1 °C 8.3 °C 990.4 hPa SSW 9.7 km/h 14.5 km/h 78% 0 mm 0 W/m2
20:46 12.3 °C 7.9 °C 990.4 hPa West 11.3 km/h 20.9 km/h 75% 0 mm 0 W/m2
20:52 12.3 °C 7.2 °C 990.4 hPa West 9.7 km/h 11.3 km/h 71% 0 mm 0 W/m2
20:58 12.4 °C 6.5 °C 990.4 hPa SW 12.9 km/h 17.7 km/h 67% 0 mm 0 W/m2
21:04 12.4 °C 6.3 °C 990.7 hPa WSW 14.5 km/h 14.5 km/h 66% 0 mm 0 W/m2
21:10 12.4 °C 6.1 °C 990.7 hPa West 11.3 km/h 16.1 km/h 65% 0 mm 0 W/m2
21:15 12.6 °C 5.7 °C 991.1 hPa SW 12.9 km/h 19.3 km/h 63% 0 mm 0 W/m2
21:22 12.5 °C 5.7 °C 990.7 hPa West 14.5 km/h 14.5 km/h 63% 0 mm 0 W/m2
21:28 12.4 °C 5.3 °C 991.1 hPa West 14.5 km/h 17.7 km/h 62% 0 mm 0 W/m2
21:34 12.3 °C 5.4 °C 991.1 hPa West 12.9 km/h 14.5 km/h 63% 0 mm 0 W/m2
21:40 12.1 °C 5.1 °C 991.4 hPa WSW 11.3 km/h 11.3 km/h 62% 0 mm 0 W/m2
21:45 11.8 °C 4.5 °C 991.4 hPa WNW 12.9 km/h 12.9 km/h 61% 0 mm 0 W/m2
21:52 11.4 °C 4.3 °C 991.4 hPa NW 11.3 km/h 24.1 km/h 62% 0 mm 0 W/m2
21:58 11.1 °C 4.1 °C 991.4 hPa WNW 12.9 km/h 24.1 km/h 62% 0 mm 0 W/m2
22:03 10.9 °C 3.9 °C 991.4 hPa West 12.9 km/h 12.9 km/h 62% 0 mm 0 W/m2
22:10 10.7 °C 3.7 °C 991.8 hPa WNW 14.5 km/h 16.1 km/h 62% 0 mm 0 W/m2
22:15 10.3 °C 3.1 °C 991.8 hPa WSW 12.9 km/h 24.1 km/h 61% 0 mm 0 W/m2
22:22 10 °C 3.1 °C 992.1 hPa West 12.9 km/h 12.9 km/h 62% 0 mm 0 W/m2
22:28 9.8 °C 2.8 °C 992.4 hPa WSW 12.9 km/h 14.5 km/h 62% 0 mm 0 W/m2
22:33 9.6 °C 2.7 °C 992.4 hPa WNW 12.9 km/h 16.1 km/h 62% 0 mm 0 W/m2
22:39 9.4 °C 2.4 °C 992.8 hPa West 11.3 km/h 14.5 km/h 62% 0 mm 0 W/m2
22:46 9.3 °C 2.4 °C 992.8 hPa WNW 14.5 km/h 33.8 km/h 62% 0 mm 0 W/m2
22:52 9 °C 2.3 °C 992.8 hPa WSW 12.9 km/h 14.5 km/h 63% 0 mm 0 W/m2
22:58 8.8 °C 2.4 °C 992.8 hPa NW 9.7 km/h 14.5 km/h 64% 0 mm 0 W/m2
23:03 8.6 °C 2.1 °C 992.8 hPa West 11.3 km/h 24.1 km/h 64% 0 mm 0 W/m2
23:09 8.4 °C 1.9 °C 993.1 hPa West 12.9 km/h 16.1 km/h 64% 0 mm 0 W/m2
23:16 8.2 °C 1.8 °C 993.1 hPa NW 11.3 km/h 16.1 km/h 64% 0 mm 0 W/m2
23:22 8.1 °C 1.4 °C 993.5 hPa West 11.3 km/h 11.3 km/h 63% 0 mm 0 W/m2
23:28 8.1 °C 1.4 °C 993.5 hPa WNW 11.3 km/h 14.5 km/h 63% 0 mm 0 W/m2
23:34 7.9 °C 1.3 °C 993.8 hPa West 11.3 km/h 11.3 km/h 63% 0 mm 0 W/m2
23:39 7.9 °C 1.3 °C 993.8 hPa NNW 9.7 km/h 19.3 km/h 63% 0 mm 0 W/m2
23:46 7.8 °C 0.9 °C 993.8 hPa West 9.7 km/h 19.3 km/h 62% 0 mm 0 W/m2
23:52 7.7 °C 0.6 °C 993.8 hPa NW 9.7 km/h 11.3 km/h 61% 0 mm 0 W/m2
23:58 7.6 °C 0.6 °C 994.1 hPa SW 8 km/h 16.1 km/h 61% 0 mm 0 W/m2
Country Meadow, Clay, NY, USA
Compliments of Weather Underground - 2 mb